When you browse on this site, cookies collect data to enhance your experience and personalize the content and advertising you see.
Visit our Privacy Policy to learn more. By continuing to use the site, you agree to this use of cookies and data.
  • In Slovakia
  • List of Countries
  • For 7 days
  • Water Temperature
  • Satellite Maps
  • Weather Map
  • Weather Widgets
  • user-avatar
    Login

    Hourly Weather Kipungo

    Today, 21 January, Monday

    Time Temperature Precipitation Wind Pressure Humidity
    00:00 +20°C° 0 mm 1 mps 654 mmHg 87%
    01:00 +20°C° 0 mm 1 mps 654 mmHg 88%
    02:00 +20°C° 0 mm 1 mps 654 mmHg 89%
    03:00 +20°C° 0 mm 1 mps 654 mmHg 89%
    04:00 +19°C° 0 mm 1 mps 654 mmHg 89%
    05:00 +20°C° 0 mm 1 mps 654 mmHg 88%
    06:00 +20°C° 0 mm 1 mps 654 mmHg 86%
    07:00 +19°C° 0 mm 0 mps 654 mmHg 85%
    08:00 +22°C° 0.3 mm 1 mps 655 mmHg 79%
    09:00 +24°C° 0.3 mm 1 mps 655 mmHg 73%
    10:00 +26°C° 0.3 mm 2 mps 656 mmHg 67%
    11:00 +27°C° 0.7 mm 2 mps 656 mmHg 63%
    12:00 +28°C° 0.7 mm 2 mps 655 mmHg 60%
    13:00 +29°C° 0.7 mm 1 mps 655 mmHg 56%
    14:00 +28°C° 2.1 mm 2 mps 654 mmHg 61%
    15:00 +28°C° 2.1 mm 2 mps 654 mmHg 66%
    16:00 +27°C° 2.1 mm 2 mps 653 mmHg 71%
    17:00 +25°C° 1.7 mm 2 mps 653 mmHg 77%
    18:00 +24°C° 1.7 mm 2 mps 653 mmHg 82%
    19:00 +21°C° 1.7 mm 2 mps 653 mmHg 88%
    20:00 +21°C° 0.5 mm 2 mps 653 mmHg 89%
    21:00 +21°C° 0.5 mm 2 mps 654 mmHg 91%
    22:00 +20°C° 0.5 mm 2 mps 654 mmHg 92%
    23:00 +20°C° 0.2 mm 2 mps 654 mmHg 93%

    Tomorrow, 22 January, Tuesday

    Time Temperature Precipitation Wind Pressure Humidity
    00:00 +20°C° 0.2 mm 2 mps 654 mmHg 93%
    01:00 +20°C° 0.2 mm 1 mps 653 mmHg 94%
    02:00 +20°C° 0.1 mm 1 mps 653 mmHg 94%
    03:00 +20°C° 0.1 mm 1 mps 653 mmHg 95%
    04:00 +20°C° 0.1 mm 1 mps 653 mmHg 96%
    05:00 +20°C° 0 mm 1 mps 653 mmHg 94%
    06:00 +20°C° 0 mm 1 mps 653 mmHg 93%
    07:00 +21°C° 0 mm 1 mps 654 mmHg 92%
    08:00 +22°C° 0.2 mm 1 mps 654 mmHg 86%
    09:00 +24°C° 0.2 mm 1 mps 655 mmHg 79%
    10:00 +26°C° 0.2 mm 1 mps 655 mmHg 72%
    11:00 +27°C° 0.6 mm 1 mps 655 mmHg 65%
    12:00 +29°C° 0.6 mm 1 mps 655 mmHg 58%
    13:00 +30°C° 0.6 mm 1 mps 655 mmHg 50%
    14:00 +30°C° 0 mm 1 mps 654 mmHg 50%
    15:00 +30°C° 0 mm 1 mps 654 mmHg 50%
    16:00 +30°C° 0 mm 1 mps 653 mmHg 50%
    17:00 +27°C° 1.8 mm 1 mps 653 mmHg 61%
    18:00 +25°C° 1.8 mm 1 mps 653 mmHg 73%
    19:00 +23°C° 1.8 mm 2 mps 653 mmHg 85%
    20:00 +22°C° 1.6 mm 1 mps 653 mmHg 87%
    21:00 +22°C° 1.6 mm 1 mps 654 mmHg 89%
    22:00 +21°C° 1.6 mm 1 mps 654 mmHg 92%
    23:00 +20°C° 0.7 mm 2 mps 654 mmHg 92%

    Day after tomorrow, 23 January, Wednesday

    Time Temperature Precipitation Wind Pressure Humidity
    00:00 +20°C° 0.7 mm 2 mps 654 mmHg 92%
    01:00 +20°C° 0.7 mm 2 mps 654 mmHg 92%
    02:00 +19°C° 0.2 mm 2 mps 653 mmHg 93%
    03:00 +19°C° 0.2 mm 2 mps 653 mmHg 94%
    04:00 +18°C° 0.2 mm 2 mps 652 mmHg 94%
    05:00 +19°C° 0 mm 2 mps 653 mmHg 92%
    06:00 +20°C° 0 mm 1 mps 653 mmHg 91%
    07:00 +20°C° 0 mm 1 mps 654 mmHg 89%
    08:00 +23°C° 0 mm 1 mps 654 mmHg 78%
    09:00 +25°C° 0 mm 2 mps 655 mmHg 66%
    10:00 +28°C° 0 mm 2 mps 656 mmHg 55%
    11:00 +30°C° 0 mm 2 mps 655 mmHg 48%
    12:00 +31°C° 0 mm 2 mps 655 mmHg 41%
    13:00 +34°C° 0 mm 2 mps 654 mmHg 34%
    14:00 +32°C° 0 mm 2 mps 654 mmHg 36%
    15:00 +32°C° 0 mm 2 mps 653 mmHg 39%
    16:00 +31°C° 0 mm 1 mps 652 mmHg 42%
    17:00 +29°C° 0 mm 2 mps 652 mmHg 50%
    18:00 +27°C° 0 mm 3 mps 652 mmHg 57%
    19:00 +25°C° 0 mm 3 mps 652 mmHg 65%
    20:00 +24°C° 0 mm 3 mps 653 mmHg 67%
    21:00 +24°C° 0 mm 2 mps 653 mmHg 69%
    22:00 +23°C° 0 mm 2 mps 654 mmHg 71%
    23:00 +21°C° 0 mm 2 mps 653 mmHg 74%

    24 January, Thursday

    Time Temperature Precipitation Wind Pressure Humidity
    00:00 +20°C° 0 mm 2 mps 652 mmHg 78%
    01:00 +19°C° 0 mm 2 mps 652 mmHg 81%
    02:00 +19°C° 0 mm 2 mps 652 mmHg 81%
    03:00 +18°C° 0 mm 2 mps 651 mmHg 81%
    04:00 +18°C° 0 mm 2 mps 651 mmHg 81%
    05:00 +20°C° 0 mm 1 mps 652 mmHg 78%
    06:00 +20°C° 0 mm 1 mps 652 mmHg 75%
    07:00 +21°C° 0 mm 1 mps 653 mmHg 73%
    08:00 +25°C° 0 mm 1 mps 654 mmHg 61%
    09:00 +26°C° 0 mm 0 mps 655 mmHg 50%
    10:00 +30°C° 0 mm 0 mps 656 mmHg 39%
    11:00 +33°C° 0 mm 1 mps 655 mmHg 35%
    12:00 +34°C° 0 mm 1 mps 654 mmHg 31%
    13:00 +35°C° 0 mm 1 mps 654 mmHg 27%
    14:00 +35°C° 0 mm 2 mps 653 mmHg 27%
    15:00 +35°C° 0 mm 2 mps 653 mmHg 27%
    16:00 +34°C° 0 mm 2 mps 652 mmHg 27%
    17:00 +31°C° 0 mm 2 mps 652 mmHg 33%
    18:00 +29°C° 0 mm 2 mps 652 mmHg 39%
    19:00 +27°C° 0 mm 1 mps 652 mmHg 45%
    20:00 +26°C° 0 mm 2 mps 652 mmHg 50%
    21:00 +25°C° 0 mm 2 mps 653 mmHg 55%
    22:00 +24°C° 0 mm 2 mps 653 mmHg 59%
    23:00 +24°C° 0 mm 2 mps 653 mmHg 62%

    25 January, Friday

    Time Temperature Precipitation Wind Pressure Humidity
    00:00 +24°C° 0 mm 2 mps 653 mmHg 65%
    01:00 +23°C° 0 mm 1 mps 652 mmHg 68%
    02:00 +23°C° 0 mm 1 mps 652 mmHg 70%
    03:00 +22°C° 0 mm 1 mps 652 mmHg 71%
    04:00 +22°C° 0 mm 1 mps 652 mmHg 73%
    05:00 +22°C° 0 mm 1 mps 652 mmHg 73%
    06:00 +22°C° 0 mm 1 mps 653 mmHg 73%
    07:00 +22°C° 0 mm 1 mps 653 mmHg 73%
    08:00 +26°C° 0 mm 1 mps 654 mmHg 62%
    09:00 +29°C° 0 mm 1 mps 655 mmHg 51%
    10:00 +32°C° 0 mm 1 mps 655 mmHg 40%
    11:00 +34°C° 0 mm 2 mps 655 mmHg 35%
    12:00 +35°C° 0 mm 2 mps 654 mmHg 30%
    13:00 +36°C° 0 mm 3 mps 654 mmHg 25%
    14:00 +36°C° 0 mm 3 mps 654 mmHg 27%
    15:00 +35°C° 0 mm 2 mps 653 mmHg 29%
    16:00 +35°C° 0 mm 2 mps 653 mmHg 30%
    17:00 +32°C° 0 mm 2 mps 653 mmHg 36%
    18:00 +30°C° 0 mm 2 mps 653 mmHg 41%
    19:00 +27°C° 0 mm 1 mps 653 mmHg 46%
    20:00 +26°C° 0 mm 2 mps 653 mmHg 52%
    21:00 +25°C° 0 mm 2 mps 653 mmHg 58%
    22:00 +24°C° 0 mm 2 mps 654 mmHg 65%
    23:00 +23°C° 0 mm 2 mps 653 mmHg 68%

    26 January, Saturday

    Time Temperature Precipitation Wind Pressure Humidity
    00:00 +23°C° 0 mm 2 mps 653 mmHg 71%
    01:00 +21°C° 0 mm 2 mps 653 mmHg 74%
    02:00 +21°C° 0 mm 2 mps 652 mmHg 77%
    03:00 +21°C° 0 mm 1 mps 652 mmHg 81%
    04:00 +20°C° 0 mm 1 mps 652 mmHg 84%
    05:00 +21°C° 0 mm 1 mps 653 mmHg 81%
    06:00 +22°C° 0 mm 1 mps 653 mmHg 78%
    07:00 +22°C° 0 mm 1 mps 654 mmHg 75%
    08:00 +26°C° 0 mm 1 mps 655 mmHg 63%
    09:00 +29°C° 0 mm 1 mps 656 mmHg 51%
    10:00 +33°C° 0 mm 1 mps 657 mmHg 39%
    11:00 +34°C° 0 mm 1 mps 657 mmHg 35%
    12:00 +35°C° 0 mm 1 mps 656 mmHg 32%
    13:00 +37°C° 0 mm 2 mps 656 mmHg 28%
    14:00 +36°C° 0 mm 2 mps 655 mmHg 30%
    15:00 +35°C° 0 mm 2 mps 654 mmHg 31%
    16:00 +33°C° 0 mm 1 mps 654 mmHg 33%
    17:00 +31°C° 0 mm 2 mps 654 mmHg 39%
    18:00 +29°C° 0 mm 2 mps 654 mmHg 45%
    19:00 +27°C° 0 mm 2 mps 654 mmHg 51%
    20:00 +26°C° 0 mm 2 mps 654 mmHg 54%
    21:00 +25°C° 0 mm 2 mps 654 mmHg 58%
    22:00 +24°C° 0 mm 2 mps 654 mmHg 61%
    23:00 +23°C° 0 mm 2 mps 654 mmHg 66%
    Show more